225  
ASUS45 KREV 020510  
RWRNV  
NEVADA REGIONAL WEATHER ROUNDUP  
NATIONAL WEATHER SERVICE RENO NV  
900 PM PST THU DEC 01 2022  
 
NOTE: "FAIR" INDICATES FEW OR NO CLOUDS BELOW 12,000 FEET WITH NO  
SIGNIFICANT WEATHER AND/OR S TO VISIBILITY
.  
 
NVZ001-003-004-020600-  
WESTERN NEVADA  
 
CITY SKY/WX TMP DP RH WIND PRES REMARKS
 
RENO CLOUDY 33 20 58 NE8 29.84R  
CARSON CITY CLOUDY 32 21 64 S6 29.84R  
MINDEN FLURRIES 28 27 93 NE6 29.84R  
SLIDE MTN N/A 10 10 100 W13 N/A WCI -5  
FALLON MOCLDY 34 30 85 N10 29.81R  
LOVELOCK CLOUDY 34 19 54 NW7 29.81R  

 
 
NVZ002-CAZ072-073-020600-  
NORTHERN AND CENTRAL SIERRA  
 
CITY SKY/WX TMP DP RH WIND PRES REMARKS
 
S. LAKE TAHOE LGT SNOW 23 17 78 SW5 29.81R  
TRUCKEE CLOUDY 21 16 79 S7 29.83R  
BLUE CANYON CLOUDY 26 26 100 SW3 29.87R  
SUSANVILLE FAIR 23 19 86 CALM 29.86R  
MAMMOTH LAKES LGT SNOW 32 30 93 E3 29.74R VSB 3/4  
BRIDGEPORT N/A 32 32 100 NE7 N/A  

 
 
NVZ030-031-036-020600-  
NORTHERN NEVADA  
 
CITY SKY/WX TMP DP RH WIND PRES REMARKS
 
ELKO LGT SNOW 29 25 85 W5 29.68R FOG  
WINNEMUCCA CLOUDY 30 23 75 W7 29.78R  
BATTLE MOUNTAI CLOUDY 32 30 93 NW12 29.77R VSB 1  
WENDOVER MOCLDY 42 26 53 S10 29.57F  

 
 
NVZ035-037-020600-  
CENTRAL NEVADA  
 
CITY SKY/WX TMP DP RH WIND PRES REMARKS
 
ELY MOCLDY 35 24 64 S22G31 29.67F  
EUREKA N/A 38 25 59 S17G26 29.62S  

 
 
NVZ013-014-020600-  
SOUTH CENTRAL NEVADA  
 
CITY SKY/WX TMP DP RH WIND PRES REMARKS
 
TONOPAH MOCLDY 35 30 82 SE6 29.75S  

 
 
NVZ017-020-022-020600-  
SOUTHERN NEVADA  
 
CITY SKY/WX TMP DP RH WIND PRES REMARKS
 
LAS VEGAS MOCLDY 55 31 39 VRB6 29.85R  
N. LAS VEGAS MOCLDY 57 31 37 S14G23 29.84R  
NELLIS AFB CLOUDY 58 31 35 S23G30 29.82S  
HENDERSON MOCLDY 54 31 41 S21 29.86F  
MERCURY MOCLDY 52 31 44 S31G41 29.79S  

 
 
 
CLICK HERE TO GO TO PREVIOUS BULLETINS.

The Nexlab NV Page Main Text Page